{"data":{"norad_id":48382,"epoch":"2026-05-24T20:20:00.959712Z","epoch_age_seconds":81443,"freshness":"FRESH","line1":"1 48382U 21038AF  26144.84723333  .00001896  00000+0  72839-4 0  9995","line2":"2 48382  53.1623 353.5774 0001269  80.6503 279.4642 15.31707312278899","mean_motion":15.31707312,"eccentricity":0.0001269,"inclination_deg":53.1623,"raan_deg":353.5774,"arg_perigee_deg":80.6503,"mean_anomaly_deg":279.4642,"bstar":7.2839e-5,"rev_number":27889,"period_min":94.012739164883,"perigee_km":469.84907889614,"apogee_km":471.58731834555,"semimajor_km":6848.8551986208,"source":"CELESTRAK","updated_at":"2026-05-25T13:38:16.689996Z"}}